| time (UTC) | temp F | wind direction | speed knots | gust knots | rain 1hr in | rain 24hr in | rain mn in | humidity % | barometer mb |
| 20260502161156 | 72 | 42 | 1.7 | 6.1 | 0.00 | 0.00 | 0.00 | 27 | 1016.4 |
| 20260502151156 | 64 | 0 | 0.0 | 0.0 | 0.00 | 0.00 | 0.00 | 41 | 1016.5 |
| 20260502122356 | 32 | 0 | 0.0 | 0.0 | 0.00 | 0.00 | 0.00 | 85 | 1016.5 |
| 20260502114755 | 32 | 0 | 0.0 | 0.0 | 0.00 | 0.00 | 0.00 | 84 | 1016.5 |
| 20260502113556 | 32 | 0 | 0.0 | 0.0 | 0.00 | 0.00 | 0.00 | 82 | 1016.4 |
| 20260502112356 | 32 | 0 | 0.0 | 0.0 | 0.00 | 0.00 | 0.00 | 82 | 1016.5 |
| 20260502111155 | 33 | 0 | 0.0 | 0.0 | 0.00 | 0.00 | 0.00 | 82 | 1016.5 |
| 20260502105956 | 33 | 0 | 0.0 | 0.0 | 0.00 | 0.00 | 0.00 | 82 | 1016.5 |
| 20260502104756 | 33 | 0 | 0.0 | 0.0 | 0.00 | 0.00 | 0.00 | 82 | 1016.6 |
| 20260502103556 | 33 | 0 | 0.0 | 0.0 | 0.00 | 0.00 | 0.00 | 82 | 1016.7 |
| 20260502102355 | 33 | 0 | 0.0 | 0.0 | 0.00 | 0.00 | 0.00 | 81 | 1016.7 |
| 20260502101156 | 34 | 0 | 0.0 | 0.0 | 0.00 | 0.00 | 0.00 | 81 | 1016.7 |
| 20260502091156 | 34 | 0 | 0.0 | 0.0 | 0.00 | 0.00 | 0.00 | 80 | 1016.9 |
| 20260502071155 | 38 | 0 | 0.0 | 0.0 | 0.00 | 0.00 | 0.00 | 76 | 1018.0 |
| 20260502065956 | 38 | 0 | 0.0 | 0.0 | 0.00 | 0.00 | 0.00 | 76 | 1018.2 |
| 20260502063555 | 39 | 0 | 0.0 | 0.0 | 0.00 | 0.00 | 0.00 | 75 | 1018.1 |
| 20260502062356 | 39 | 0 | 0.0 | 0.0 | 0.00 | 0.00 | 0.00 | 76 | 1018.2 |
| 20260502061156 | 39 | 0 | 0.0 | 0.0 | 0.00 | 0.00 | 0.00 | 75 | 1018.1 |
| 20260502055958 | 40 | 0 | 0.0 | 0.0 | 0.00 | 0.00 | 0.00 | 72 | 1018.2 |
| 20260502053556 | 41 | 0 | 0.0 | 0.0 | 0.00 | 0.00 | 0.00 | 71 | 1018.3 |
| 20260502052356 | 41 | 0 | 0.0 | 0.0 | 0.00 | 0.00 | 0.00 | 72 | 1018.2 |
| 20260502051156 | 42 | 0 | 0.0 | 0.0 | 0.00 | 0.00 | 0.00 | 71 | 1018.3 |
| 20260502045956 | 42 | 0 | 0.0 | 0.0 | 0.00 | 0.00 | 0.00 | 71 | 1018.4 |
| 20260502044756 | 42 | 0 | 0.0 | 0.0 | 0.00 | 0.00 | 0.00 | 71 | 1018.4 |
| 20260502043556 | 42 | 0 | 0.0 | 0.0 | 0.00 | 0.00 | 0.00 | 70 | 1018.4 |
| 20260502042356 | 43 | 0 | 0.0 | 0.0 | 0.00 | 0.00 | 0.00 | 70 | 1018.5 |
| 20260502041156 | 44 | 0 | 0.0 | 0.0 | 0.00 | 0.00 | 0.00 | 69 | 1018.4 |
| 20260502034756 | 45 | 0 | 0.0 | 0.0 | 0.00 | 0.00 | 0.00 | 68 | 1018.4 |
| 20260502033556 | 45 | 0 | 0.0 | 0.0 | 0.00 | 0.00 | 0.00 | 68 | 1018.3 |
| 20260502032356 | 47 | 0 | 0.0 | 0.0 | 0.00 | 0.00 | 0.00 | 66 | 1018.2 |
| 20260502031157 | 47 | 0 | 0.0 | 0.0 | 0.00 | 0.00 | 0.00 | 66 | 1018.1 |
| 20260502025956 | 47 | 0 | 0.0 | 0.0 | 0.00 | 0.00 | 0.00 | 65 | 1018.2 |
| 20260502024756 | 49 | 0 | 0.0 | 0.0 | 0.00 | 0.00 | 0.00 | 61 | 1018.0 |
| 20260502023556 | 52 | 0 | 0.0 | 0.0 | 0.00 | 0.00 | 0.00 | 55 | 1017.8 |
| 20260502022356 | 56 | 0 | 0.0 | 0.0 | 0.00 | 0.00 | 0.00 | 49 | 1017.8 |
| 20260502021157 | 61 | 0 | 0.0 | 0.0 | 0.00 | 0.00 | 0.00 | 42 | 1017.8 |
| 20260502014756 | 65 | 0 | 0.0 | 0.0 | 0.00 | 0.00 | 0.00 | 33 | 1017.6 |
| 20260502013556 | 67 | 0 | 0.0 | 0.0 | 0.00 | 0.00 | 0.00 | 32 | 1017.6 |
| 20260502012356 | 67 | 0 | 0.0 | 0.0 | 0.00 | 0.00 | 0.00 | 30 | 1017.6 |
| 20260502005956 | 68 | 0 | 0.0 | 0.0 | 0.00 | 0.00 | 0.00 | 28 | 1017.6 |
| 20260502004756 | 68 | 347 | 0.0 | 4.3 | 0.00 | 0.00 | 0.00 | 28 | 1017.6 |
| 20260502003556 | 68 | 334 | 0.9 | 5.2 | 0.00 | 0.00 | 0.00 | 28 | 1017.5 |
| 20260501235957 | 68 | 357 | 0.9 | 6.1 | 0.00 | 0.00 | 0.00 | 28 | 1017.5 |
| 20260501234757 | 68 | 330 | 1.7 | 7.0 | 0.00 | 0.00 | 0.00 | 27 | 1017.6 |
| 20260501233556 | 68 | 25 | 2.6 | 8.7 | 0.00 | 0.00 | 0.00 | 29 | 1017.6 |
| 20260501232356 | 67 | 44 | 2.6 | 7.0 | 0.00 | 0.00 | 0.00 | 30 | 1017.5 |
| 20260501231157 | 69 | 333 | 1.7 | 6.1 | 0.00 | 0.00 | 0.00 | 29 | 1017.5 |
| 20260501224756 | 69 | 349 | 1.7 | 7.0 | 0.00 | 0.00 | 0.00 | 29 | 1017.7 |
| 20260501223556 | 69 | 12 | 1.7 | 7.0 | 0.00 | 0.00 | 0.00 | 29 | 1017.8 |
| 20260501222356 | 69 | 347 | 3.5 | 11.3 | 0.00 | 0.00 | 0.00 | 28 | 1017.8 |
| 20260501221157 | 68 | 7 | 1.7 | 7.0 | 0.00 | 0.00 | 0.00 | 28 | 1017.8 |
| 20260501215957 | 69 | 355 | 2.6 | 12.2 | 0.00 | 0.00 | 0.00 | 29 | 1017.8 |
| 20260501214757 | 69 | 8 | 2.6 | 9.6 | 0.00 | 0.00 | 0.00 | 28 | 1018.0 |
| 20260501213556 | 70 | 326 | 2.6 | 8.7 | 0.00 | 0.00 | 0.00 | 29 | 1018.1 |
| 20260501212357 | 70 | 321 | 2.6 | 10.4 | 0.00 | 0.00 | 0.00 | 28 | 1018.0 |
| 20260501211156 | 70 | 340 | 1.7 | 7.8 | 0.00 | 0.00 | 0.00 | 29 | 1018.4 |
| 20260501202357 | 68 | 316 | 2.6 | 9.6 | 0.00 | 0.00 | 0.00 | 30 | 1018.4 |
| 20260501194756 | 68 | 308 | 2.6 | 10.4 | 0.00 | 0.00 | 0.00 | 30 | 1018.5 |
| 20260501192356 | 67 | 338 | 3.5 | 13.9 | 0.00 | 0.00 | 0.00 | 32 | 1018.8 |
| 20260501191157 | 66 | 324 | 3.5 | 9.6 | 0.00 | 0.00 | 0.00 | 31 | 1018.8 |
| 20260501184757 | 65 | 331 | 4.3 | 13.0 | 0.00 | 0.00 | 0.00 | 34 | 1018.8 |
| 20260501183556 | 66 | 324 | 4.3 | 11.3 | 0.00 | 0.00 | 0.00 | 32 | 1018.6 |
| 20260501182356 | 66 | 324 | 4.3 | 13.0 | 0.00 | 0.00 | 0.00 | 35 | 1018.8 |
| 20260501181157 | 65 | 315 | 5.2 | 11.3 | 0.00 | 0.00 | 0.00 | 33 | 1018.8 |
| 20260501175957 | 65 | 315 | 4.3 | 13.0 | 0.00 | 0.00 | 0.00 | 32 | 1018.8 |
| 20260501174757 | 65 | 348 | 3.5 | 11.3 | 0.00 | 0.00 | 0.00 | 33 | 1018.8 |
| 20260501173557 | 65 | 325 | 4.3 | 10.4 | 0.00 | 0.00 | 0.00 | 33 | 1018.9 |
| 20260501172357 | 64 | 317 | 4.3 | 13.9 | 0.00 | 0.00 | 0.00 | 36 | 1019.0 |
| 20260501171157 | 64 | 318 | 4.3 | 12.2 | 0.00 | 0.00 | 0.00 | 34 | 1019.1 |
| 20260501165957 | 64 | 327 | 5.2 | 13.9 | 0.00 | 0.00 | 0.00 | 32 | 1019.1 |
| 20260501164757 | 64 | 333 | 3.5 | 8.7 | 0.00 | 0.00 | 0.00 | 34 | 1019.2 |
| 20260501163557 | 63 | 347 | 2.6 | 12.2 | 0.00 | 0.00 | 0.00 | 37 | 1018.8 |
| 20260501162356 | 62 | 343 | 3.5 | 11.3 | 0.00 | 0.00 | 0.00 | 38 | 1018.9 |